Weather History for Block Island, RI

Change the Weather History Date:

Saturday, January 19, 2013

  Actual Average Record
Temperature  
Mean Temperature 38 °F -  
Max Temperature 48 °F 36 °F 57 °F (1986)
Min Temperature 28 °F 24 °F 3 °F (1983)
Degree Days  
Heating Degree Days 27    
Moisture  
Dew Point 30 °F    
Average Humidity 63    
Maximum Humidity 81    
Minimum Humidity 50    
Precipitation  
Precipitation 0.00 in - - ()
Sea Level Pressure  
Sea Level Pressure 30.19 in    
Wind  
Wind Speed 20 mph (SW)    
Max Wind Speed 32 mph    
Max Gust Speed 43 mph    
Visibility 10 miles    
Events      
Averages and records for this station are not official NWS values.
T = Trace of Precipitation, MM = Missing Value Source: NWS Daily Summary

Daily Weather History Graph

Daily Weather History Graph

Search for Another Location

Airport:

Trip Planner

Search our weather history database for the weather conditions in past years. The results will help you decide how hot, cold, wet, or windy it might be!

Date:

Astronomy

Jan. 19, 2013 Rise Set
Actual Time 7:07 AM EST 4:47 PM EST
Civil Twilight 6:37 AM EST 5:17 PM EST
Nautical Twilight 6:03 AM EST 5:51 PM EST
Astronomical Twilight 5:30 AM EST 6:24 PM EST
Moon 11:12 AM EST (1/19) 12:37 AM EST (1/19)
Length of Visible Light 10h 40m
Length of Day
9h 39m
First Quarter, 57% of the Moon is Illuminated
Jan 19
First Quarter
Jan 26
Full
Feb 3
Last Quarter
Feb 10
New
Feb 17
First Quarter

Hourly Weather History & Observations

Time (EST) Temp. Windchill Dew Point Humidity Pressure Visibility Wind Dir Wind Speed Gust Speed Precip Events Conditions
12:15 AM 28.4 °F 20.4 °F 14.0 °F 55% 30.42 in 10.0 mi SW 8.1 mph - N/A   Clear
12:35 AM 30.2 °F 20.2 °F 17.6 °F 60% 30.40 in 10.0 mi WSW 12.7 mph 17.3 mph N/A   Scattered Clouds
12:55 AM 30.2 °F 20.8 °F 15.8 °F 55% 30.39 in 10.0 mi WSW 11.5 mph - N/A   Partly Cloudy
1:15 AM 30.2 °F 20.2 °F 17.6 °F 60% 30.38 in 10.0 mi WSW 12.7 mph 19.6 mph N/A   Partly Cloudy
1:35 AM 32.0 °F 22.1 °F 19.4 °F 60% 30.39 in 10.0 mi WSW 13.8 mph - N/A   Partly Cloudy
1:55 AM 32.0 °F 21.6 °F 19.4 °F 60% 30.38 in 10.0 mi WSW 15.0 mph - N/A   Partly Cloudy
2:15 AM 33.8 °F 22.8 °F 19.4 °F 56% 30.38 in 10.0 mi WSW 18.4 mph 24.2 mph N/A   Partly Cloudy
2:35 AM 33.8 °F 22.5 °F 19.4 °F 56% 30.37 in 10.0 mi SW 19.6 mph 27.6 mph N/A   Scattered Clouds
2:55 AM 33.8 °F 22.2 °F 21.2 °F 60% 30.37 in 10.0 mi WSW 20.7 mph 26.5 mph N/A   Scattered Clouds
3:15 AM 35.6 °F 24.2 °F 21.2 °F 56% 30.35 in 10.0 mi SW 21.9 mph 28.8 mph N/A   Mostly Cloudy
3:35 AM 35.6 °F 24.2 °F 21.2 °F 56% 30.34 in 10.0 mi SW 21.9 mph 31.1 mph N/A   Scattered Clouds
3:55 AM 35.6 °F 24.5 °F 23.0 °F 60% 30.34 in 10.0 mi SW 20.7 mph 29.9 mph N/A   Partly Cloudy
4:35 AM 37.4 °F 26.4 °F 24.8 °F 60% 30.32 in 10.0 mi SW 23.0 mph 28.8 mph N/A   Mostly Cloudy
4:55 AM 37.4 °F 26.6 °F 24.8 °F 60% 30.32 in 10.0 mi SW 21.9 mph 31.1 mph N/A   Mostly Cloudy
5:15 AM 37.4 °F 26.4 °F 26.6 °F 65% 30.31 in 10.0 mi SW 23.0 mph 29.9 mph N/A   Mostly Cloudy
5:35 AM 37.4 °F 25.9 °F 26.6 °F 65% 30.30 in 10.0 mi SW 25.3 mph 32.2 mph N/A   Partly Cloudy
5:55 AM 37.4 °F 26.4 °F 26.6 °F 65% 30.30 in 10.0 mi SW 23.0 mph 32.2 mph N/A   Mostly Cloudy
6:15 AM 39.2 °F 28.5 °F 26.6 °F 61% 30.30 in 10.0 mi SW 24.2 mph 33.4 mph N/A   Mostly Cloudy
6:35 AM 39.2 °F 28.5 °F 26.6 °F 61% 30.29 in 10.0 mi SW 24.2 mph 34.5 mph N/A   Mostly Cloudy
6:55 AM 39.2 °F 28.5 °F 28.4 °F 65% 30.28 in 10.0 mi SW 24.2 mph 33.4 mph N/A   Scattered Clouds
7:35 AM 39.2 °F 28.3 °F 28.4 °F 65% 30.27 in 10.0 mi SW 25.3 mph 35.7 mph N/A   Scattered Clouds
7:55 AM 41.0 °F 30.0 °F 30.2 °F 65% 30.27 in 10.0 mi SW 28.8 mph 38.0 mph N/A   Partly Cloudy
8:15 AM 41.0 °F 30.2 °F 28.4 °F 61% 30.27 in 10.0 mi SW 27.6 mph 39.1 mph N/A   Partly Cloudy
8:35 AM 42.8 °F 32.5 °F 30.2 °F 61% 30.27 in 10.0 mi SW 28.8 mph 39.1 mph N/A   Mostly Cloudy
8:55 AM 42.8 °F 32.3 °F 30.2 °F 61% 30.27 in 10.0 mi SW 29.9 mph 38.0 mph N/A   Mostly Cloudy
9:15 AM 42.8 °F 32.7 °F 30.2 °F 61% 30.27 in 10.0 mi SW 27.6 mph 41.4 mph N/A   Scattered Clouds
9:35 AM 44.6 °F 35.7 °F 32.0 °F 61% 30.28 in 10.0 mi WSW 24.2 mph 34.5 mph N/A   Scattered Clouds
9:55 AM 44.6 °F 34.9 °F 32.0 °F 61% 30.28 in 10.0 mi WSW 28.8 mph 36.8 mph N/A   Scattered Clouds
10:35 AM 44.6 °F 34.4 °F 32.0 °F 61% 30.25 in 10.0 mi SW 32.2 mph 42.6 mph N/A   Clear
10:55 AM 46.4 °F 37.2 °F 33.8 °F 62% 30.23 in 10.0 mi SW 29.9 mph 40.3 mph N/A   Clear
11:15 AM 46.4 °F 37.0 °F 33.8 °F 62% 30.22 in 10.0 mi SW 31.1 mph 38.0 mph N/A   Clear
11:35 AM 46.4 °F 37.2 °F 33.8 °F 62% 30.20 in 10.0 mi SW 29.9 mph 40.3 mph N/A   Clear
11:55 AM 46.4 °F 38.3 °F 32.0 °F 57% 30.18 in 10.0 mi SW 23.0 mph 36.8 mph N/A   Clear
12:15 PM 46.4 °F 37.2 °F 32.0 °F 57% 30.17 in 10.0 mi SW 29.9 mph 38.0 mph N/A   Clear
12:35 PM 46.4 °F 37.9 °F 33.8 °F 62% 30.16 in 10.0 mi SW 25.3 mph 36.8 mph N/A   Clear
12:55 PM 46.4 °F 38.1 °F 32.0 °F 57% 30.14 in 10.0 mi SW 24.2 mph 34.5 mph N/A   Clear
1:15 PM 48.2 °F - 32.0 °F 54% 30.14 in 10.0 mi SW 27.6 mph 35.7 mph N/A   Clear
1:35 PM 48.2 °F - 32.0 °F 54% 30.13 in 10.0 mi SW 28.8 mph 34.5 mph N/A   Clear
2:15 PM 48.2 °F - 30.2 °F 50% 30.10 in 10.0 mi SW 27.6 mph 40.3 mph N/A   Clear
2:35 PM 48.2 °F - 32.0 °F 54% 30.09 in 10.0 mi SW 26.5 mph 31.1 mph N/A   Clear
2:55 PM 46.4 °F 37.5 °F 32.0 °F 57% 30.09 in 10.0 mi WSW 27.6 mph 40.3 mph N/A   Clear
3:35 PM 46.4 °F 39.0 °F 33.8 °F 62% 30.08 in 10.0 mi SW 19.6 mph 35.7 mph N/A   Clear
3:55 PM 46.4 °F 38.3 °F 33.8 °F 62% 30.07 in 10.0 mi SW 23.0 mph 28.8 mph N/A   Clear
4:15 PM 46.4 °F 38.5 °F 33.8 °F 62% 30.07 in 10.0 mi SW 21.9 mph 29.9 mph N/A   Clear
4:35 PM 46.4 °F 38.5 °F 33.8 °F 62% 30.07 in 10.0 mi SW 21.9 mph 31.1 mph N/A   Clear
4:55 PM 46.4 °F 39.2 °F 35.6 °F 66% 30.07 in 10.0 mi SW 18.4 mph 28.8 mph N/A   Clear
5:15 PM 44.6 °F 37.2 °F 35.6 °F 71% 30.07 in 10.0 mi WSW 17.3 mph 29.9 mph N/A   Clear
5:35 PM 44.6 °F 36.4 °F 35.6 °F 71% 30.07 in 10.0 mi WSW 20.7 mph 28.8 mph N/A   Clear
6:15 PM 44.6 °F 37.2 °F 35.6 °F 71% 30.07 in 10.0 mi WSW 17.3 mph 27.6 mph N/A   Clear
6:35 PM 44.6 °F 37.4 °F 35.6 °F 71% 30.06 in 10.0 mi WSW 16.1 mph 23.0 mph N/A   Clear
6:55 PM 44.6 °F 36.6 °F 35.6 °F 71% 30.06 in 10.0 mi SW 19.6 mph 25.3 mph N/A   Clear
7:15 PM 46.4 °F 39.2 °F 35.6 °F 66% 30.05 in 10.0 mi SW 18.4 mph 25.3 mph N/A   Clear
7:35 PM 46.4 °F 39.2 °F 35.6 °F 66% 30.05 in 10.0 mi SW 18.4 mph 24.2 mph N/A   Clear
7:55 PM 46.4 °F 39.8 °F 35.6 °F 66% 30.04 in 10.0 mi SW 16.1 mph 25.3 mph N/A   Clear
8:35 PM 46.4 °F 40.1 °F 35.6 °F 66% 30.03 in 10.0 mi SW 15.0 mph 23.0 mph N/A   Clear
8:55 PM 46.4 °F 39.8 °F 35.6 °F 66% 30.03 in 10.0 mi SW 16.1 mph 23.0 mph N/A   Clear
9:15 PM 46.4 °F 40.1 °F 35.6 °F 66% 30.02 in 10.0 mi SW 15.0 mph 20.7 mph N/A   Clear
9:35 PM 46.4 °F 39.5 °F 35.6 °F 66% 30.01 in 10.0 mi SW 17.3 mph 26.5 mph N/A   Clear
9:55 PM 46.4 °F 38.7 °F 35.6 °F 66% 30.00 in 10.0 mi SW 20.7 mph 26.5 mph N/A   Clear
10:15 PM 46.4 °F 38.7 °F 35.6 °F 66% 30.00 in 10.0 mi SW 20.7 mph 31.1 mph N/A   Clear
10:35 PM 48.2 °F - 35.6 °F 62% 29.98 in 10.0 mi SW 23.0 mph 31.1 mph N/A   Clear
11:15 PM 46.4 °F 38.3 °F 41.0 °F 81% 29.96 in 10.0 mi SW 23.0 mph 31.1 mph N/A   Clear
11:35 PM 46.4 °F 37.9 °F 41.0 °F 81% 29.95 in 10.0 mi SW 25.3 mph 31.1 mph N/A   Clear
11:55 PM 46.4 °F 38.5 °F 41.0 °F 81% 29.95 in 10.0 mi SW 21.9 mph 28.8 mph N/A   Clear